Location: Voorhees State Park
(40.6817°N, 74.8983°W)
Time: 15:26:18
(UTC-04:00)

Daily predictions for brighter satellites

Satellite Brightness Start Highest point End
(mag) Time Altitude Azimuth Time Altitude Azimuth Time Altitude Azimuth
Cosmos 1570 Rocket 4.4 20:42:44 10° SSW 20:48:03 73° WNW 20:53:26 10° NNE
CENTAUR R/B 2.8 20:44:20 10° S 20:49:50 44° ESE 20:56:04 10° NE
ERS-2 2.2 20:52:01 10° SSE 20:55:41 90° E 20:59:24 10° NNW
Cosmos 2360 Rocket 3.2 20:51:49 10° N 20:56:50 31° ENE 21:01:49 10° ESE
Cosmos 2219 Rocket 4.4 20:57:14 10° NNE 20:58:46 11° NE 21:00:18 10° ENE
Cosmos 1980 Rocket 3.8 20:54:25 10° NW 20:59:29 34° WSW 21:04:32 10° SSW
Cosmos 1666 2.7 20:58:49 10° N 21:02:42 85° ENE 21:06:34 10° S
Cosmos 1898 Rocket 3.6 20:59:43 10° NNW 21:05:03 85° WSW 21:10:23 10° SSE
ATLAS 3B R/B 4.2 20:59:23 10° WSW 21:06:07 42° NW 21:12:37 10° NNE
Cosmos 1814 Rocket 4.0 21:02:05 10° S 21:07:17 68° ESE 21:12:35 10° NNE
Atlas Centaur 2 3.4 21:09:02 10° SW 21:10:25 11° SSW 21:11:46 10° S
Meteor 2-9 Rocket 4.3 21:08:13 10° N 21:13:30 55° ENE 21:18:51 10° SSE
Meteor 1-19 Rocket 4.3 21:07:39 10° S 21:13:34 81° E 21:19:29 10° NNE
Cosmos 990 Rocket 4.0 21:09:15 10° NNW 21:14:29 85° ENE 21:19:44 10° SSE
Cosmos 1975 3.5 21:11:23 10° NNW 21:15:20 55° W 21:19:15 10° S
Aureole 2 Rocket 2.6 21:13:40 10° N 21:16:25 39° ENE 21:18:19 16° SE
Timation 2 Rocket 4.4 21:11:13 10° SW 21:17:08 64° WNW 21:23:11 10° NNE
Resurs 1-3 4.3 21:13:12 10° S 21:17:29 54° W 21:21:48 10° NNW
Cosmos 1464 Rocket 4.4 21:11:54 10° SSE 21:17:52 45° E 21:23:52 10° NNE
Cosmos 1455 Rocket 3.4 21:16:20 10° N 21:20:35 48° E 21:24:21 13° SSE
Cosmos 1743 3.2 21:17:00 10° NNW 21:20:47 61° W 21:24:31 10° S
BREEZE-M R/B 4.5 21:16:46 10° W 21:20:52 32° NNW 21:23:29 10° NE
H-2A R/B 2.7 21:17:08 12° SE 21:21:14 38° ENE 21:25:54 10° N
Iridium 2 3.6 21:18:43 10° S 21:22:31 79° E 21:26:22 10° N
GPS 2-05 Rocket1 4.0 21:26:11 10° SW 21:28:53 23° SSE 21:29:59 19° SE
Cosmos 2333 Rocket 4.1 21:25:51 10° N 21:29:30 17° NE 21:33:09 10° E
Meteor 2-20 4.4 21:24:53 10° N 21:31:04 78° E 21:37:13 10° SSE
Cosmos 1975 Rocket 3.7 21:27:34 10° SSW 21:31:49 55° W 21:36:04 10° N
COSMOS 2428 4.0 21:28:03 10° N 21:32:47 26° NE 21:36:42 13° ESE
Meteor 1-23 Rocket 4.4 21:30:51 10° SSE 21:36:11 50° E 21:41:33 10° NNE
Cosmos 1833 4.2 21:33:36 10° SSW 21:39:20 80° ESE 21:45:02 10° NNE
ARGOS 3.1 21:37:35 14° SSE 21:42:14 77° ENE 21:47:40 10° N
Cosmos 1242 Rocket 4.3 21:39:20 10° NNW 21:42:35 31° W 21:45:46 10° SSW
Meteor 2-4 Rocket 3.7 21:37:38 10° S 21:43:05 82° W 21:48:44 10° N
Terra 3.7 21:42:40 12° E 21:44:58 16° ENE 21:47:53 10° NNE
Cosmos 540 Rocket 3.4 21:40:37 10° S 21:45:43 66° ESE 21:50:52 10° NNE
Cosmos 1515 3.6 21:44:23 15° S 21:47:30 67° E 21:51:19 10° NNE
Helios 1B rocket 3.8 21:44:32 10° NE 21:47:36 20° E 21:48:12 19° ESE
Cosmos 1544 Rocket 3.6 21:43:47 10° N 21:48:14 82° W 21:51:53 15° S
Cosmos 2150 Rocket 4.3 21:43:21 10° NNW 21:48:41 70° WSW 21:53:01 15° S
SPOT 5 3.7 21:47:09 20° ESE 21:49:25 32° ENE 21:53:30 10° N
Cosmos 2322 Rocket 3.3 21:47:16 10° NW 21:52:28 40° WSW 21:57:39 10° S
Shenzhou-11 Module 2.5 21:51:01 10° W 21:53:52 43° SSW 21:54:34 35° SSE
Cosmos 2322 3.8 21:48:58 10° NNW 21:54:41 66° ENE 21:58:16 23° SE
Lacrosse 5 rocket 1.3 21:51:01 10° NW 21:55:22 81° NE 21:57:27 28° SE
SJ 16-02 1.5 21:51:57 10° N 21:56:22 59° ENE 21:58:37 27° SE
Cosmos 2237 Rocket 4.3 21:53:01 10° NNE 21:56:22 16° NE 21:59:43 10° E
Tiangong 2 1.5 21:58:18 10° WNW 22:01:26 59° N 22:03:04 25° ENE
SL-16 R/B 3.7 21:58:23 10° NW 22:03:17 31° WSW 22:08:11 10° SSW
Cosmos 1536 Rocket 3.6 22:01:18 13° S 22:05:13 83° W 22:09:43 10° N
MetOp-B 4.2 22:02:54 19° S 22:06:50 77° WSW 22:12:13 10° NNW
BREEZE M DEB (TANK) 3.1 21:58:58 10° WNW 22:07:48 60° SW 22:09:21 32° SSE
ISS -0.7 22:06:19 10° NNW 22:07:52 13° N 22:09:23 10° NNE
USA 234 3.5 22:07:40 10° NE 22:14:11 73° NW 22:20:44 10° WSW
Resurs 01 Rocket 4.3 22:12:17 10° SW 22:14:37 14° W 22:16:58 10° WNW
Cosmos 372 Rocket 3.9 22:10:27 10° NNW 22:15:36 81° ENE 22:18:02 32° SSE
Cosmos 1544 4.2 22:13:37 10° NNE 22:16:51 28° ENE 22:17:09 27° E
Cosmos 1340 Rocket 4.5 22:13:23 10° SW 22:17:06 34° WNW 22:20:51 10° N
CZ-4C R/B 3.2 22:11:08 10° NNW 22:18:17 61° NE 22:23:08 25° SE
Cosmos 2219 3.4 22:20:18 27° SSE 22:23:11 50° ESE 22:28:43 10° NNE
Cosmos 1092 Rocket 4.3 22:17:19 10° N 22:23:33 55° E 22:26:28 31° SE
DELTA 2 R/B (1) 3.9 22:18:46 10° SW 22:23:58 42° SSE 22:26:36 26° ESE
Nadezhda 4 Rocket 4.0 22:17:47 10° N 22:24:09 81° E 22:27:44 28° SSE
Cosmos 2237 4.3 22:20:37 10° NNW 22:26:20 71° WSW 22:29:14 30° S
SL-08 RB Rocket 4.5 22:24:27 21° SSW 22:27:11 46° W 22:31:37 10° NNW
ERS-1 Rocket 3.4 22:27:39 25° S 22:30:28 59° W 22:35:27 10° NNW
CARTOSAT-1 3.8 22:35:58 45° ESE 22:36:52 55° ENE 22:41:05 10° N
CZ-2C R/B 3.7 22:32:03 10° NE 22:36:53 28° E 22:37:25 28° ESE
Cosmos 1766 4.4 22:33:56 10° NNE 22:37:29 30° ENE 22:37:34 30° E
CENTAUR R/B 4.1 22:34:57 10° WSW 22:40:33 37° NW 22:47:00 10° NNE
Cosmos 2360 Rocket 3.3 22:35:42 10° NW 22:40:50 37° WSW 22:43:54 21° SSW
Cosmos 1025 Rocket 3.2 22:40:14 34° SSW 22:42:02 72° W 22:46:26 10° N
Cosmos 2219 Rocket 2.3 22:38:16 10° NNW 22:43:51 66° ENE 22:45:43 41° SE
Cosmos 2333 4.2 22:42:45 10° NNW 22:48:25 76° WSW 22:50:29 41° S
Cosmos 2026 Rocket 4.1 22:44:40 10° N 22:50:43 56° E 22:52:36 40° SE
CZ-2C R/B 3.4 22:50:58 42° ESE 22:52:31 56° ENE 22:58:03 10° N
Cosmos 2279 Rocket 4.4 22:53:18 38° SE 22:54:48 45° E 23:00:39 10° NNE
Cosmos 1606 Rocket 3.5 22:51:15 10° N 22:55:42 66° E 22:56:10 61° ESE
SPOT 1/Viking Rocket 4.0 22:55:11 35° SSW 22:57:09 56° W 23:02:14 10° NNW
Meteor 1-29 3.0 22:53:56 10° N 22:57:17 76° NW 22:57:17 76° NW
Cosmos 1125 Rocket 4.3 22:55:23 10° NNW 23:00:20 43° WSW 23:02:08 31° SSW
H-2A R/B 3.8 22:57:46 14° SW 23:00:46 24° W 23:04:49 10° NW
Helios 1A 4.1 23:00:58 31° SW 23:02:01 36° W 23:05:53 10° NNW
Landsat 7 4.2 23:02:11 43° SSW 23:03:26 57° W 23:08:08 10° NNW
Cosmos 1655 Rocket 4.5 22:58:42 10° N 23:04:50 47° ENE 23:06:29 39° ESE
Cosmos 2142 Rocket 4.4 23:06:59 44° S 23:09:07 83° E 23:15:23 10° N
Cosmos 1842 3.9 23:10:31 45° NE 23:10:31 45° NE 23:13:35 10° NNE
Cosmos 1805 3.8 23:06:42 10° N 23:10:05 47° NE 23:10:05 47° NE
Cosmos 2084 Rocket 4.3 23:07:00 10° NNW 23:10:42 35° NE 23:10:54 35° NE
Mayak 1.3 23:09:35 10° ENE 23:09:44 10° ENE 23:09:44 10° ENE
Cosmos 2333 Rocket 2.2 23:08:44 10° NNW 23:14:28 81° WSW 23:15:46 55° S
COSMOS 2455 2.9 23:14:03 52° SE 23:14:49 56° ESE 23:20:42 10° NE
SL-16 R/B 3.7 23:10:19 10° N 23:14:57 25° NE 23:16:59 21° E
COSMOS 2428 3.3 23:11:49 10° NW 23:17:14 47° WSW 23:18:42 38° SSW
Cosmos 2195 Rocket 4.5 23:12:40 10° N 23:18:50 76° W 23:20:45 46° S
YAOGAN 11 4.1 23:19:00 71° SW 23:19:19 75° WSW 23:23:52 10° NNW
Cosmos 1428 Rocket 4.4 23:14:38 10° N 23:20:47 74° E 23:22:12 54° SSE
Cosmos 1627 Rocket 4.4 23:15:09 10° N 23:21:19 77° W 23:23:05 48° S
Terra 2.1 23:21:33 50° SW 23:22:14 56° W 23:26:56 10° NNW
Helios 1B rocket 4.0 23:19:16 10° N 23:22:56 31° WNW 23:24:33 23° WSW
H-2A R/B 4.4 23:23:04 12° ENE 23:23:26 13° ENE 23:25:17 10° NE
Cosmos 1980 3.7 23:18:17 10° NNW 23:23:56 73° ENE 23:24:56 59° SE
Cosmos 773 Rocket 3.8 23:23:50 71° SE 23:24:12 75° ESE 23:29:21 10° NNE
Cosmos 1634 Rocket 4.3 23:23:14 32° SSW 23:26:10 62° W 23:32:27 10° N
SPOT 5 4.4 23:26:23 21° WSW 23:27:32 23° W 23:31:10 10° NW
Cosmos 2297 Rocket 2.1 23:29:00 63° SE 23:29:29 67° ESE 23:35:06 10° NNE
Cosmos 1892 Rocket 3.8 23:31:41 61° W 23:31:50 61° W 23:36:09 10° N
Abrixas rocket 4.4 23:30:01 10° NW 23:32:41 23° N 23:32:56 23° NNE
Cosmos 2227 Rocket 2.0 23:32:28 65° S 23:33:18 80° ESE 23:38:59 10° NNE
Lacrosse 5 rocket 3.9 23:32:28 10° W 23:33:08 11° WSW 23:33:08 11° WSW
SJ 16-02 3.9 23:32:44 10° WNW 23:34:22 12° W 23:35:37 11° WSW
Tiangong 2 4.1 23:35:05 10° W 23:35:15 11° W 23:35:15 11° W
Cosmos 2228 3.3 23:34:30 10° NNW 23:38:31 63° WNW 23:38:31 63° WNW
Cosmos 2237 Rocket 2.0 23:35:30 10° NNW 23:41:14 88° WSW 23:41:55 70° SSE
Cosmos 1953 3.4 23:40:34 10° N 23:43:28 38° NE 23:43:28 38° NE
ISS -1.1 23:43:13 10° NNW 23:45:22 16° NNE 23:46:12 15° NE
Iridium 4 Rocket 3.6 23:46:41 69° SE 23:47:20 77° E 23:53:15 10° N
Cosmos 2082 3.5 23:48:08 73° SSE 23:48:38 80° ESE 23:54:24 10° NNE
